Change the Weather History Date:

Tuesday, September 3, 2013

  Actual Average Record
Temperature  
Mean Temperature 80 °F 68 °F  
Max Temperature 95 °F 83 °F 102 °F (1990)
Min Temperature 64 °F 53 °F 30 °F (1974)
Degree Days  
Heating Degree Days 0 2  
Month to date heating degree days 0 6  
Since 1 July heating degree days 3 31  
Cooling Degree Days 15 5  
Month to date cooling degree days 22 16  
Year to date cooling degree days 815 752  
Growing Degree Days 30 (Base 50)    
Moisture  
Dew Point 57 °F    
Average Humidity 54    
Maximum Humidity 78    
Minimum Humidity 30    
Precipitation  
Precipitation 0.00 in 0.04 in 1.80 in (1999)
Month to date precipitation 0.00 0.14  
Year to date precipitation 17.64 16.25  
Snow  
Snow 0.00 in 0.00 in 0.00 in ()
Month to date snowfall 0.0 0.0  
Since 1 July snowfall 0.0 0.0  
Since 1 September snowfall 0.0 0.0  
Snow Depth 0.00 in    
Sea Level Pressure  
Sea Level Pressure 29.91 in    
Wind  
Wind Speed 13 mph (South)    
Max Wind Speed 23 mph    
Max Gust Speed 28 mph    
Visibility 10 miles    
Events      
T = Trace of Precipitation, MM = Missing Value Source: NWS Daily Summary

Daily Weather History Graph

Daily Weather History Graph

Search for Another Location

Airport or City:

Trip Planner

Search our weather history database for the weather conditions in past years. The results will help you decide how hot, cold, wet, or windy it might be!

Date:

Astronomy

Sep. 03, 2013 Rise Set
Actual Time 7:09 AM CDT 8:12 PM CDT
Civil Twilight 6:40 AM CDT 8:41 PM CDT
Nautical Twilight 6:05 AM CDT 9:16 PM CDT
Astronomical Twilight 5:29 AM CDT 9:52 PM CDT
Moon 5:23 AM CDT (9/3) 7:01 PM CDT (9/3)
Length of Visible Light 14h 01m
Length of Day
13h 03m
Waning Crescent, 3% of the Moon is Illuminated
Sep 3
Waning Crescent
Sep 5
New
Sep 12
First Quarter
Sep 19
Full
Sep 26
Last Quarter

Hourly Weather History & Observations

Time (CDT) Temp. Heat Index Dew Point Humidity Pressure Visibility Wind Dir Wind Speed Gust Speed Precip Events Conditions
12:52 AM 66.9 °F - 57.9 °F 73% 29.96 in 10.0 mi East 4.6 mph - N/A   Clear
1:52 AM 69.1 °F - 57.9 °F 68% 29.95 in 10.0 mi SSE 9.2 mph - N/A   Clear
2:52 AM 68.0 °F - 57.0 °F 68% 29.96 in 10.0 mi Variable 3.5 mph - N/A   Clear
3:52 AM 66.9 °F - 57.0 °F 70% 29.95 in 10.0 mi South 5.8 mph - N/A   Clear
4:52 AM 66.0 °F - 57.0 °F 73% 29.95 in 10.0 mi South 9.2 mph - N/A   Clear
5:52 AM 64.9 °F - 57.0 °F 75% 29.94 in 10.0 mi SSW 8.1 mph - N/A   Clear
6:52 AM 64.9 °F - 57.0 °F 75% 29.94 in 10.0 mi South 8.1 mph - N/A   Partly Cloudy
7:52 AM 66.9 °F - 55.9 °F 68% 29.93 in 10.0 mi South 12.7 mph - N/A   Clear
8:52 AM 73.0 °F - 55.9 °F 55% 29.95 in 10.0 mi SSW 10.4 mph - N/A   Clear
9:52 AM 78.1 °F - 55.0 °F 45% 29.93 in 10.0 mi SSW 16.1 mph 24.2 mph N/A   Clear
10:52 AM 82.9 °F 82.1 °F 55.9 °F 39% 29.92 in 10.0 mi SW 18.4 mph - N/A   Clear
11:52 AM 87.1 °F 85.9 °F 57.0 °F 36% 29.92 in 10.0 mi SSW 18.4 mph 24.2 mph N/A   Clear
12:52 PM 90.0 °F 88.6 °F 57.0 °F 33% 29.91 in 10.0 mi SSW 15.0 mph - N/A   Partly Cloudy
1:52 PM 91.9 °F 90.6 °F 57.0 °F 31% 29.89 in 10.0 mi South 17.3 mph - N/A   Clear
2:52 PM 93.0 °F 92.0 °F 57.9 °F 31% 29.88 in 10.0 mi South 17.3 mph - N/A   Clear
3:52 PM 93.0 °F 91.7 °F 57.0 °F 30% 29.86 in 10.0 mi South 20.7 mph - N/A   Clear
4:52 PM 93.9 °F 92.9 °F 57.9 °F 30% 29.87 in 10.0 mi South 20.7 mph 26.5 mph N/A   Clear
5:52 PM 93.9 °F 92.9 °F 57.9 °F 30% 29.87 in 10.0 mi South 15.0 mph - N/A   Clear
6:52 PM 91.9 °F 90.8 °F 57.9 °F 32% 29.87 in 10.0 mi SSE 12.7 mph - N/A   Clear
7:52 PM 88.0 °F 87.1 °F 59.0 °F 37% 29.88 in 10.0 mi ESE 8.1 mph - N/A   Clear
8:52 PM 84.0 °F 83.5 °F 57.9 °F 41% 29.88 in 10.0 mi ESE 12.7 mph - N/A   Clear
9:52 PM 81.0 °F 81.0 °F 57.0 °F 44% 29.89 in 10.0 mi SE 17.3 mph 24.2 mph N/A   Clear
10:52 PM 79.0 °F - 57.9 °F 48% 29.91 in 10.0 mi SSE 18.4 mph 25.3 mph N/A   Clear
11:52 PM 77.0 °F - 57.9 °F 52% 29.92 in 10.0 mi Variable 4.6 mph - N/A   Clear